Retour au catalogue

STARLINK-6319

ActifCommunicationsVLEO
NORAD 56532·PAYLOAD·🇺🇸 United States

Lancé May 14, 2023 depuis Cape Canaveral Space Force Station

Loading…

Prochains Passages (prochaines 24 heures)

TLE

FraisSource: CelesTrak SupGP

Époque: Sep 15, 2026, 02:20 UTC

1 56532C 23065AF  26258.09770833 -.00020631  00000+0 -74746-3 0  2589
2 56532  43.0030 208.5633 0000795 265.3524  22.8523 15.27580524    10

Suivez STARLINK-6319 en temps réel avec AllMySat

Download on the App Store